SCOUT A DEB, 3214

Orbit data source: Space-Track

SCOUT A DEB, 3214 is space debris in LEO originally from a launch on Sat, 02 Mar 1968 UTC launched from the Air Force Western Test Range (AFWTR). Debris objects in space refer to the collection of defunct objects orbiting the Earth. Examples of debris include non-operational satellites, rocket bodies, and fragments generated from explosions, collisions, or faulty payload assembly.

Loading next visibility...
Identifier
3214, 1968-012D
Orbit
LEO
Country
Flag of USUS
Related business
Manufacturer
Unknown
Mission
Spacecraft
Bus & Motor
Unknown
Mass
Unknown
Launch date (UTC)
1968-03-02 (58 years ago)
Launch vehicle
Unknown
Launch site
Air Force Western Test Range (AFWTR)
Object type
Payload
Rocket body
Debris
Shape & HBR
Unknown
Radar Cross Section
Small (<0.1 m²)

Expand to show TLE details & history
Last TLE update: 3 days ago

TLE from 3 days ago
0 SCOUT A DEB
1 03214U 68012D   25256.52964584  .00000130  00000-0  24229-3 0  9996
2 03214  89.8264 108.3687 0184347 309.7310 116.2000 13.29188938547785
Epoch: 2025-09-13T12:42Z
TLE epoch observation values (Epoch: 2025-09-13T12:42:41.4Z)
Latitude
67.88014°
Longitude
-74.64054°
Altitude
1,224.97 km
Speed
7.217 km/s
True Right ascension
07h 15m 10s
True Declination
67° 46' 02"
Sunlit
Object was in daylight at epoch
Visualization orbit readout
Latitude
Unknown
Longitude
Unknown
Altitude
Unknown
Speed
Unknown
Apparent Right ascension
Unknown
Apparent Declination
Unknown
Sunlit
N/A
Visualization observer readout
Local Sidereal Time
06:12:10
Azimuth
Unknown
Elevation
Unknown
Doppler factor
Unknown
Orbital elements
Apogee altitude
1,285.625 km
Perigee altitude
1,008.181 km
Semi-major axis
7,525.04 km
Eccentricity
0.01843
Inclination
89.8264°
RAAN
108.3687°
Arg. of periapsis
309.731°
True anomaly
118.07599°
Mean anomaly
116.2°
Eccentric anomaly
117.13993°
Mean motion
3.32491 °/min
Orbital period
108.27 mins
BSTAR
0.00024229
Loading maneuver chart data...
Computing Atmospheric mass density...
Loading historical data...
Loading historical data...
Loading historical data...
Loading historical data...
Loading historical data...
Loading historical data...
Loading historical data...

Documentation

Showing up to 5 results
|